| time (UTC) | temp C | wind direction | speed KPH | gust KPH | rain 1hr cm | rain 24hr cm | rain mn cm | humidity % | barometer mb |
| 20260507091559 | 13 | 184 | 9.7 | 20.9 | 0.00 | 0.00 | 0.00 | 59 | 1012.2 |
| 20260507090112 | 13 | 216 | 8.0 | 22.5 | 0.00 | 0.00 | 0.00 | 57 | 1012.0 |
| 20260507084558 | 13 | 185 | 9.7 | 24.1 | 0.00 | 0.00 | 0.00 | 56 | 1011.8 |
| 20260507083056 | 13 | 203 | 8.0 | 19.3 | 0.00 | 0.00 | 0.00 | 54 | 1011.6 |
| 20260507081556 | 14 | 171 | 9.7 | 19.3 | 0.00 | 0.00 | 0.00 | 55 | 1011.3 |
| 20260507074600 | 14 | 171 | 6.4 | 17.7 | 0.00 | 0.00 | 0.00 | 56 | 1011.2 |
| 20260507073057 | 15 | 163 | 8.0 | 16.1 | 0.00 | 0.00 | 0.00 | 56 | 1011.1 |
| 20260507071606 | 15 | 188 | 6.4 | 17.7 | 0.00 | 0.00 | 0.00 | 56 | 1010.9 |
| 20260507070057 | 15 | 236 | 4.8 | 12.9 | 0.00 | 0.00 | 0.00 | 55 | 1010.8 |
| 20260507064616 | 15 | 218 | 6.4 | 14.5 | 0.00 | 0.00 | 0.00 | 53 | 1010.4 |
| 20260507063058 | 15 | 227 | 1.6 | 6.4 | 0.00 | 0.00 | 0.00 | 52 | 1010.4 |
| 20260507061557 | 16 | 228 | 4.8 | 12.9 | 0.00 | 0.00 | 0.00 | 50 | 1010.3 |
| 20260507060057 | 16 | 172 | 4.8 | 11.3 | 0.00 | 0.00 | 0.00 | 49 | 1010.0 |
| 20260507054608 | 17 | 259 | 6.4 | 17.7 | 0.00 | 0.00 | 0.00 | 50 | 1010.0 |
| 20260507053058 | 17 | 238 | 6.4 | 12.9 | 0.00 | 0.00 | 0.00 | 50 | 1010.0 |
| 20260507051559 | 18 | 196 | 3.2 | 17.7 | 0.00 | 0.00 | 0.00 | 51 | 1010.1 |
| 20260507044557 | 18 | 214 | 6.4 | 16.1 | 0.00 | 0.00 | 0.00 | 52 | 1010.3 |
| 20260507043102 | 18 | 205 | 3.2 | 17.7 | 0.00 | 0.00 | 0.00 | 54 | 1010.4 |
| 20260507041608 | 19 | 161 | 9.7 | 17.7 | 0.00 | 0.00 | 0.00 | 52 | 1010.4 |
| 20260507040059 | 20 | 200 | 8.0 | 19.3 | 0.00 | 0.00 | 0.00 | 53 | 1010.2 |
| 20260507034602 | 20 | 196 | 8.0 | 25.7 | 0.00 | 0.00 | 0.00 | 52 | 1010.1 |
| 20260507033057 | 20 | 167 | 9.7 | 19.3 | 0.00 | 0.00 | 0.00 | 52 | 1009.9 |
| 20260507031559 | 20 | 200 | 8.0 | 19.3 | 0.00 | 0.00 | 0.00 | 53 | 1010.0 |
| 20260507024601 | 21 | 144 | 6.4 | 17.7 | 0.00 | 0.00 | 0.00 | 51 | 1010.1 |
| 20260507023112 | 21 | 182 | 6.4 | 17.7 | 0.00 | 0.00 | 0.00 | 50 | 1010.3 |
| 20260507021559 | 22 | 173 | 4.8 | 17.7 | 0.00 | 0.00 | 0.00 | 47 | 1010.4 |
| 20260507020058 | 22 | 184 | 4.8 | 14.5 | 0.00 | 0.00 | 0.00 | 47 | 1010.4 |
| 20260507014607 | 22 | 172 | 4.8 | 17.7 | 0.00 | 0.00 | 0.00 | 45 | 1010.5 |
| 20260507013114 | 22 | 197 | 6.4 | 16.1 | 0.00 | 0.00 | 0.00 | 45 | 1010.7 |
| 20260507011642 | 23 | 182 | 6.4 | 16.1 | 0.00 | 0.00 | 0.00 | 44 | 1010.7 |
| 20260507010622 | 23 | 194 | 8.0 | 22.5 | 0.00 | 0.00 | 0.00 | 44 | 1010.8 |